When you browse on this site, cookies collect data to enhance your experience and personalize the content and advertising you see.
Visit our Privacy Policy to learn more. By continuing to use the site, you agree to this use of cookies and data.
  • en Suisse
  • Liste des pays
  • À 7 jours
  • Température de l'eau
  • Carte satellitaire
  • Carte météo
  • Widgets météo
  • user-avatar
    Se connecter

    Météo par heure à Kuyanchi

    Ce jour, 20 Février, Mercredi

    Heure Température Précipitation Vent Pression Humidité
    00:00 -19°C° 0 mm 2 m/s 734 mmHg 96%
    01:00 -17°C° 0 mm 1 m/s 735 mmHg 96%
    02:00 -18°C° 0 mm 1 m/s 735 mmHg 97%
    03:00 -19°C° 0 mm 1 m/s 735 mmHg 98%
    04:00 -20°C° 0 mm 0 m/s 735 mmHg 99%
    05:00 -20°C° 0 mm 0 m/s 735 mmHg 98%
    06:00 -20°C° 0 mm 0 m/s 735 mmHg 98%
    07:00 -20°C° 0 mm 0 m/s 736 mmHg 98%
    08:00 -18°C° 0 mm 1 m/s 736 mmHg 96%
    09:00 -17°C° 0 mm 1 m/s 736 mmHg 94%
    10:00 -18°C° 0 mm 2 m/s 737 mmHg 92%
    11:00 -16°C° 0 mm 2 m/s 737 mmHg 91%
    12:00 -16°C° 0 mm 3 m/s 737 mmHg 90%
    13:00 -15°C° 0 mm 3 m/s 737 mmHg 89%
    14:00 -15°C° 0 mm 3 m/s 736 mmHg 90%
    15:00 -16°C° 0 mm 4 m/s 736 mmHg 90%
    16:00 -15°C° 0 mm 4 m/s 736 mmHg 90%
    17:00 -16°C° 0 mm 4 m/s 736 mmHg 91%
    18:00 -17°C° 0 mm 5 m/s 736 mmHg 91%
    19:00 -18°C° 0 mm 5 m/s 736 mmHg 92%
    20:00 -17°C° 0 mm 6 m/s 735 mmHg 92%
    21:00 -17°C° 0 mm 6 m/s 735 mmHg 92%
    22:00 -16°C° 0 mm 6 m/s 735 mmHg 91%
    23:00 -16°C° 0 mm 6 m/s 735 mmHg 91%

    Demain, 21 Février, Jeudi

    Heure Température Précipitation Vent Pression Humidité
    00:00 -17°C° 0 mm 7 m/s 734 mmHg 91%
    01:00 -15°C° 0 mm 7 m/s 734 mmHg 90%
    02:00 -15°C° 0.1 mm 7 m/s 734 mmHg 91%
    03:00 -14°C° 0.1 mm 7 m/s 734 mmHg 91%
    04:00 -14°C° 0.1 mm 7 m/s 733 mmHg 91%
    05:00 -13°C° 0.1 mm 7 m/s 733 mmHg 91%
    06:00 -13°C° 0.1 mm 7 m/s 733 mmHg 91%
    07:00 -12°C° 0.1 mm 7 m/s 733 mmHg 91%
    08:00 -12°C° 0.1 mm 7 m/s 733 mmHg 91%
    09:00 -11°C° 0.1 mm 7 m/s 733 mmHg 91%
    10:00 -11°C° 0.1 mm 7 m/s 733 mmHg 91%
    11:00 -11°C° 0.2 mm 7 m/s 733 mmHg 91%
    12:00 -9°C° 0.2 mm 6 m/s 733 mmHg 91%
    13:00 -9°C° 0.2 mm 6 m/s 734 mmHg 92%
    14:00 -9°C° 0.2 mm 6 m/s 734 mmHg 92%
    15:00 -9°C° 0.2 mm 6 m/s 734 mmHg 92%
    16:00 -8°C° 0.2 mm 6 m/s 734 mmHg 92%
    17:00 -8°C° 0.3 mm 6 m/s 734 mmHg 92%
    18:00 -8°C° 0.3 mm 6 m/s 735 mmHg 92%
    19:00 -8°C° 0.3 mm 6 m/s 735 mmHg 92%
    20:00 -8°C° 0.3 mm 6 m/s 735 mmHg 92%
    21:00 -8°C° 0.3 mm 6 m/s 735 mmHg 92%
    22:00 -8°C° 0.3 mm 7 m/s 735 mmHg 92%
    23:00 -8°C° 0.3 mm 6 m/s 735 mmHg 92%

    Après-demain, 22 Février, Vendredi

    Heure Température Précipitation Vent Pression Humidité
    00:00 -6°C° 0.3 mm 6 m/s 735 mmHg 92%
    01:00 -6°C° 0.3 mm 6 m/s 735 mmHg 92%
    02:00 -5°C° 0.3 mm 6 m/s 735 mmHg 92%
    03:00 -6°C° 0.3 mm 7 m/s 735 mmHg 91%
    04:00 -6°C° 0.3 mm 7 m/s 735 mmHg 90%
    05:00 -6°C° 0.1 mm 7 m/s 735 mmHg 90%
    06:00 -7°C° 0.1 mm 7 m/s 735 mmHg 90%
    07:00 -7°C° 0.1 mm 7 m/s 734 mmHg 90%
    08:00 -7°C° 0.1 mm 7 m/s 734 mmHg 90%
    09:00 -7°C° 0.1 mm 7 m/s 735 mmHg 90%
    10:00 -7°C° 0.1 mm 7 m/s 735 mmHg 90%
    11:00 -6°C° 0.1 mm 7 m/s 735 mmHg 90%
    12:00 -6°C° 0.1 mm 7 m/s 735 mmHg 90%
    13:00 -4°C° 0.1 mm 7 m/s 735 mmHg 89%
    14:00 -4°C° 0.1 mm 6 m/s 735 mmHg 89%
    15:00 -4°C° 0.1 mm 6 m/s 734 mmHg 88%
    16:00 -4°C° 0.1 mm 6 m/s 734 mmHg 88%
    17:00 -4°C° 0.3 mm 5 m/s 734 mmHg 89%
    18:00 -4°C° 0.3 mm 5 m/s 735 mmHg 90%
    19:00 -4°C° 0.3 mm 5 m/s 735 mmHg 91%
    20:00 -4°C° 0.5 mm 5 m/s 735 mmHg 92%
    21:00 -4°C° 0.5 mm 5 m/s 735 mmHg 92%
    22:00 -4°C° 0.5 mm 5 m/s 736 mmHg 92%
    23:00 -7°C° 0.1 mm 5 m/s 736 mmHg 91%

    23 Février, Samedi

    Heure Température Précipitation Vent Pression Humidité
    00:00 -10°C° 0.1 mm 5 m/s 737 mmHg 90%
    01:00 -12°C° 0.1 mm 4 m/s 738 mmHg 89%
    02:00 -12°C° 0 mm 4 m/s 738 mmHg 90%
    03:00 -14°C° 0 mm 4 m/s 739 mmHg 92%
    04:00 -15°C° 0 mm 4 m/s 740 mmHg 93%
    05:00 -14°C° 0.1 mm 4 m/s 740 mmHg 93%
    06:00 -14°C° 0.1 mm 4 m/s 740 mmHg 93%
    07:00 -13°C° 0.1 mm 5 m/s 741 mmHg 93%
    08:00 -12°C° 0.1 mm 5 m/s 741 mmHg 92%
    09:00 -12°C° 0.1 mm 5 m/s 741 mmHg 92%
    10:00 -11°C° 0.1 mm 5 m/s 742 mmHg 91%
    11:00 -11°C° 0.1 mm 5 m/s 742 mmHg 90%
    12:00 -10°C° 0.1 mm 5 m/s 742 mmHg 89%
    13:00 -10°C° 0.1 mm 5 m/s 742 mmHg 88%
    14:00 -10°C° 0.2 mm 5 m/s 742 mmHg 89%
    15:00 -11°C° 0.2 mm 5 m/s 743 mmHg 90%
    16:00 -11°C° 0.2 mm 5 m/s 743 mmHg 91%
    17:00 -11°C° 0.1 mm 5 m/s 743 mmHg 91%
    18:00 -11°C° 0.1 mm 5 m/s 743 mmHg 91%
    19:00 -11°C° 0.1 mm 5 m/s 744 mmHg 92%
    20:00 -11°C° 0.2 mm 5 m/s 744 mmHg 93%
    21:00 -11°C° 0.2 mm 5 m/s 744 mmHg 93%
    22:00 -10°C° 0.2 mm 4 m/s 744 mmHg 94%
    23:00 -11°C° 0.1 mm 4 m/s 745 mmHg 95%

    24 Février, Dimanche

    Heure Température Précipitation Vent Pression Humidité
    00:00 -10°C° 0.1 mm 3 m/s 745 mmHg 95%
    01:00 -12°C° 0.1 mm 3 m/s 745 mmHg 96%
    02:00 -12°C° 0 mm 3 m/s 745 mmHg 96%
    03:00 -12°C° 0 mm 3 m/s 745 mmHg 96%
    04:00 -13°C° 0 mm 3 m/s 745 mmHg 97%
    05:00 -12°C° 0.1 mm 3 m/s 746 mmHg 96%
    06:00 -11°C° 0.1 mm 4 m/s 746 mmHg 95%
    07:00 -11°C° 0.1 mm 4 m/s 746 mmHg 95%
    08:00 -11°C° 0.1 mm 4 m/s 746 mmHg 94%
    09:00 -12°C° 0.1 mm 4 m/s 746 mmHg 93%
    10:00 -13°C° 0.1 mm 5 m/s 746 mmHg 93%
    11:00 -13°C° 0.1 mm 5 m/s 746 mmHg 92%
    12:00 -12°C° 0.1 mm 5 m/s 747 mmHg 91%
    13:00 -12°C° 0.1 mm 5 m/s 747 mmHg 91%
    14:00 -12°C° 0.1 mm 5 m/s 747 mmHg 91%
    15:00 -12°C° 0.1 mm 5 m/s 747 mmHg 90%
    16:00 -11°C° 0.1 mm 5 m/s 747 mmHg 90%
    17:00 -12°C° 0.1 mm 5 m/s 747 mmHg 91%
    18:00 -12°C° 0.1 mm 5 m/s 747 mmHg 91%
    19:00 -12°C° 0.1 mm 5 m/s 747 mmHg 92%
    20:00 -13°C° 0.1 mm 5 m/s 747 mmHg 92%
    21:00 -13°C° 0.1 mm 5 m/s 746 mmHg 92%
    22:00 -13°C° 0.1 mm 5 m/s 746 mmHg 92%
    23:00 -14°C° 0.1 mm 5 m/s 746 mmHg 93%

    25 Février, Lundi

    Heure Température Précipitation Vent Pression Humidité
    00:00 -14°C° 0.1 mm 5 m/s 746 mmHg 93%
    01:00 -14°C° 0.1 mm 5 m/s 745 mmHg 94%
    02:00 -15°C° 0.2 mm 5 m/s 745 mmHg 94%
    03:00 -15°C° 0.2 mm 4 m/s 745 mmHg 94%
    04:00 -15°C° 0.2 mm 4 m/s 745 mmHg 94%
    05:00 -15°C° 0.1 mm 4 m/s 745 mmHg 94%
    06:00 -15°C° 0.1 mm 4 m/s 744 mmHg 95%
    07:00 -15°C° 0.1 mm 4 m/s 744 mmHg 95%
    08:00 -15°C° 0.1 mm 4 m/s 744 mmHg 95%
    09:00 -14°C° 0.1 mm 4 m/s 744 mmHg 95%
    10:00 -14°C° 0.1 mm 4 m/s 743 mmHg 94%
    11:00 -12°C° 0.1 mm 4 m/s 743 mmHg 94%
    12:00 -12°C° 0.1 mm 5 m/s 743 mmHg 93%
    13:00 -11°C° 0.1 mm 5 m/s 742 mmHg 93%
    14:00 -11°C° 0.1 mm 5 m/s 742 mmHg 92%
    15:00 -11°C° 0.1 mm 5 m/s 741 mmHg 92%
    16:00 -10°C° 0.1 mm 5 m/s 741 mmHg 91%
    17:00 -11°C° 0.1 mm 5 m/s 741 mmHg 92%
    18:00 -11°C° 0.1 mm 5 m/s 740 mmHg 92%
    19:00 -11°C° 0.1 mm 5 m/s 740 mmHg 93%
    20:00 -11°C° 0.1 mm 5 m/s 740 mmHg 93%
    21:00 -11°C° 0.1 mm 5 m/s 739 mmHg 93%
    22:00 -11°C° 0.1 mm 5 m/s 739 mmHg 93%
    23:00 -11°C° 0.1 mm 5 m/s 739 mmHg 93%
    Voir plus